Regional Weather Roundup
Issued by NWS Jackson, KY

Home | Current Version | Previous Version | Graphics & Text | Print | Product List | Glossary On
Versions: 1 2 3 4 5 6 7 8 9 10 11 12 13 14 15 16 17 18 19 20 21 22 23 24 25 26 27 28 29 30 31 32 33 34 35 36 37 38 39 40 41 42 43 44 45 46 47 48 49 50
000
ASUS43 KJKL 281110
RWRJKL

EAST KENTUCKY HOURLY WEATHER ROUNDUP
NATIONAL WEATHER SERVICE JACKSON KY
600 AM EST SAT FEB 28 2015

NOTE: "FAIR" INDICATES FEW OR NO CLOUDS BELOW 12,000 FEET WITH
NO SIGNIFICANT WEATHER AND/OR OBSTRUCTIONS TO VISIBILITY.

* THESE REPORTS ARE NOT UNDER NWS QUALITY CONTROL AND MAY NOT
  REPORT WEATHER SUCH AS PRECIPITATION AND FOG.

KYZ079-080-083-085-087-088-110-112-115-119-120-281200
...EASTERN KENTUCKY...

CITY           SKY/WX    TMP DP  RH WIND       PRES   REMARKS
JACKSON        CLOUDY    18   6  59 VRB6      30.60R WCI  10
LONDON         CLOUDY    22   8  55 NE6       30.57S WCI  14
SOMERSET*      MOCLDY    21   9  58 E6        30.62R WCI  14
MONTICELLO*    MOCLDY    21  11  65 E5        30.61R WCI  15
MIDDLESBORO*   CLOUDY    21  16  78 CALM      30.58S
HAZARD APT*    CLOUDY    21  12  68 CALM      30.60S
BLACK MTN*       N/A     21  12  68 S5          N/A  WCI  15
PIKEVILLE APT* CLOUDY    18   9  68 NE6       30.60S WCI   9
BIG SANDY*     CLOUDY    18   8  66 NE5       30.63R WCI  11
MOREHEAD APT*  CLOUDY    16   0  48 VRB7      30.68R WCI   6
$$

KYZ035-036-041-042-044-050-067-078-099-281200
...CENTRAL KENTUCKY...

CITY           SKY/WX    TMP DP  RH WIND       PRES   REMARKS
MT STERLING*   CLOUDY    18   5  57 E10       30.66R WCI   6
FLEMING/MASON* CLOUDY    12   3  67 E7        30.69R WCI   2
DANVILLE*      CLOUDY    18   9  68 E5        30.63R WCI  11
RICHMOND*      CLOUDY    18   7  62 E7        30.62R WCI   8
LEXINGTON      CLOUDY    16   5  62 E9        30.64R WCI   4
FRANKFORT        N/A     16   3  56 E8        30.65R WCI   5
$$

KYZ091>093-OHZ055-061-077-WVZ005-015-034-035-042-281200
...SOUTHERN OHIO/WEST VIRGINIA...

CITY           SKY/WX    TMP DP  RH WIND       PRES   REMARKS
COVINGTON      CLOUDY    12   1  61 E9        30.66S WCI   0
COLUMBUS       MOCLDY     1  -7  68 CALM      30.71R
DAYTON         PTCLDY     7  -3  64 E7        30.67S WCI  -5
WILMINGTON     MOCLDY     5  -5  63 E5        30.67R WCI  -4
HUNTINGTON     MOCLDY    15   4  61 E5        30.69R WCI   8
CHARLESTON     MOCLDY    15   5  64 NE3       30.67S
PINEVILLE*     MOCLDY    11  10  92 MISG      30.64R
BECKLEY        PTCLDY     7   0  73 CALM      30.53S
BLUEFIELD      PTCLDY    10   2  69 E5        30.50R WCI   2
$$

VAZ002-007-008-TNZ017-027-036-066-071-281200
...SOUTHWEST VIRGINIA/EAST TENNESSEE...

CITY           SKY/WX    TMP DP  RH WIND       PRES   REMARKS
WISE*          CLOUDY    14   7  73 CALM      30.51R
JONESVILLE*    CLOUDY    18  10  73 CALM      30.59R
ABINGDON*      CLEAR     18  10  70 E9        30.53R WCI   6
BRISTOL        PTCLDY    17  11  77 CALM      30.55S
KNOXVILLE      CLOUDY    25  15  66 NE7       30.55R WCI  17
OAK RIDGE      PTCLDY    26  12  55 NE5       30.57R WCI  20
CROSSVILLE     CLOUDY    21  12  68 NE6       30.49R WCI  13
NASHVILLE      CLOUDY    25  10  53 E8        30.57R WCI  16
$$

...KEY TO REMARKS...
VSB - VISIBILITY IN MILES
WCI - WIND CHILL INDEX
HX  - HEAT INDEX

$$



USA.gov is the U.S. government's official web portal to all federal, state and local government web resources and services.